www.pogodaiklimat.ru

Погода и климат >> Архив погоды >> Дания >> Тирструп


ПОГОДА в Тирструпе

  • Прогноз погоды в Тирструпе
  • Монитор погоды в Тирструпе

АРХИВ ПОГОДЫ в Тирструпе

Время (UTC), дата Ветер
(напр.,м/с)
 
Видим.   Явления Облачность Т
(С)
Тd
(С)
f
(%)
Тe
(С)
Тes
(С)
Комфортность P
(гПа)
Po
(гПа)
Тmin
(С)
Tmax
(С)
R
(мм)
R24
(мм)
S
(см)
13 9.06 ЮЗ 5 40 км н/о +19.1 +8.8 51 +20 +20 1022.1 1019.1
14 9.06 ЮЗ 5 30 км н/о +19.0 +8.6 51 +19 +19 1022.2 1019.2
15 9.06 З 5-10
{11}
35 км н/о +18.9 +8.8 52 +19 +19 1022.4 1019.4
16 9.06 ЮЗ 4 40 км н/о +17.7 +8.8 56 +18 +18 1022.3 1019.3
17 9.06 ЮЗ 4 40 км н/о +17.9 +8.7 55 +18 +18 1022.2 1019.2
18 9.06 ЮЗ 3
{13}
35 км н/о +17.0 +9.3 60 +17 +17 1022.2 1019.2 +12.9 +19.6
19 9.06 З 2 50 км н/о +16.6 +9.9 65 +17 +17 1022.4 1019.4
20 9.06 ЮЗ 1 45 км н/о +15.1 +9.8 71 +16 +16 1022.8 1019.8
21 9.06 ЮЗ 1 50 км н/о +14.1 +9.4 73 +14 +14 1022.7 1019.7
22 9.06 Ю 2 50 км н/о +13.1 +8.8 75 +13 +13 1022.9 1019.9
23 9.06 ЮВ 1 14 км н/о +12.6 +8.6 77 +13 +13 1022.6 1019.6
00 10.06 штиль 0 45 км н/о +10.8 +8.0 83 +10 +10 1022.6 1019.6
01 10.06 0 27 км н/о +9.0 +7.0 87 1022.5 1019.5
02 10.06 штиль 0 19 км {туман} н/о +8.2 +6.8 91 +7 +7 1022.3 1019.3
03 10.06 З 1 9000 м дымка н/о +7.2 +5.8 91 +6 +6 1022.1 1019.1
04 10.06 СЗ 1 8000 м н/о +8.2 +7.2 93 +8 +8 1021.9 1018.9
05 10.06 СЗ 1 30 км н/о +10.8 +9.6 92 +11 +11 1021.8 1018.8
06 10.06 С 2 27 км н/о +12.2 +10.8 91 +11 +11 1021.6 1018.6 +7.1 +17.2
07 10.06 С 3 30 км н/о +14.3 +11.9 85 +13 +13 1021.4 1018.4
08 10.06 СВ 3 30 км н/о +15.4 +12.0 80 +15 +15 1021.1 1018.1
09 10.06 С 4 28 км н/о +16.5 +12.3 76 +16 +16 1020.8 1017.8
10 10.06 СВ 4 35 км слаб. ливневой дождь н/о +16.4 +11.2 71 +16 +16 1020.9 1017.9
11 10.06 СВ 4 23 км слаб. ливневой дождь н/о +16.0 +12.5 80 +15 +15 1021.0 1018.0
12 10.06 СВ 4 28 км слаб. ливневой дождь н/о +16.1 +12.5 79 +15 +15 1020.5 1017.5 0.1
13 10.06 СВ 4 30 км слаб. морось н/о +15.5 +12.2 81 +15 +15 1020.2 1017.2
14 10.06 СВ 4 35 км {морось} н/о +15.8 +11.6 76 +15 +15 1019.7 1016.7
15 10.06 СВ 4 35 км н/о +16.1 +11.4 74 +15 +15 1019.2 1016.2
16 10.06 СВ 4 40 км н/о +16.0 +10.7 71 +15 +15 1018.8 1015.8
17 10.06 С 3 40 км н/о +15.6 +10.6 72 +15 +15 1018.6 1015.6
18 10.06 С 3 35 км в посл. час дождь {ливн. осадки} н/о +15.0 +10.9 76 +14 +14 1018.2 1015.2 +12.2 +16.6
19 10.06 СВ 3 45 км н/о +14.7 +10.0 73 +14 +14 1018.2 1015.2
20 10.06 СВ 3 45 км н/о +14.5 +9.7 73 +14 +14 1018.2 1015.2
21 10.06 СВ 4 45 км н/о +14.0 +9.0 72 +13 +13 1017.8 1014.8
22 10.06 СВ 4 45 км н/о +13.7 +8.9 73 +12 +12 1017.3 1014.3
23 10.06 СВ 4 45 км н/о +14.2 +9.8 75 +13 +13 1016.8 1013.8
00 11.06 СВ 3 30 км н/о +14.3 +11.3 82 +13 +13 1016.5 1013.5
01 11.06 С 3 40 км н/о +14.8 +12.0 83 +14 +14 1016.0 1013.0
02 11.06 СВ 3 45 км н/о +15.1 +12.1 82 +14 +14 1015.2 1012.2
03 11.06 СВ 3 40 км слаб. дождь н/о +15.3 +12.2 82 +15 +15 1014.8 1011.8 0.0
04 11.06 СВ 4 40 км {ливн. осадки} н/о +15.6 +11.9 79 +15 +15 1014.5 1011.5
05 11.06 СВ 4 40 км н/о +16.1 +12.1 77 +15 +15 1014.2 1011.2
06 11.06 СВ 6 40 км н/о +16.4 +12.3 77 +15 +15 1014.1 1011.1 +13.6 +16.5
07 11.06 СВ 6 30 км н/о +15.9 +13.5 86 +15 +15 1013.7 1010.7
08 11.06 В 7 16 км н/о +15.3 +14.0 92 +14 +14 1013.6 1010.6
09 11.06 СВ 6 23 км н/о +16.5 +14.2 86 +15 +15 1013.5 1010.5
10 11.06 СВ 7 30 км н/о +17.9 +14.2 79 +17 +17 1013.3 1010.3
11 11.06 СВ 7 30 км н/о +18.7 +14.6 77 +19 +19 1012.5 1009.5
12 11.06 В 6 35 км н/о +19.1 +14.9 77 +20 +20 1012.7 1009.7
13 11.06 СВ 4 35 км н/о +19.5 +15.2 76 +21 +21 комфорт 1012.7 1009.7
14 11.06 СВ 4 27 км в посл. час дождь {ливн. осадки} н/о +19.6 +16.0 80 +22 +22 комфорт 1012.3 1009.3
15 11.06 В 3 25 км в посл. час морось {ливн. осадки} н/о +20.3 +16.9 81 +24 +24 комфорт 1012.7 1009.7 0.0
16 11.06 В 4 20 км н/о +20.1 +17.1 83 +23 +23 комфорт 1012.8 1009.8
17 11.06 ЮВ 3 26 км {ливн. осадки} н/о +19.3 +16.8 85 +21 +21 комфорт 1013.0 1010.0
18 11.06 ЮВ 5-9
{9}
24 км н/о +20.1 +17.1 83 +23 +23 комфорт 1013.0 1010.0 +15.3 +20.8
19 11.06 ЮВ 4 28 км н/о +19.0 +16.9 88 +21 +21 комфорт 1013.6 1010.6
20 11.06 ЮВ 5 35 км н/о +18.7 +16.3 86 +19 +19 1014.2 1011.2
21 11.06 ЮВ 3
{9}
13 км морось {дождь} н/о +18.4 +16.1 86 +19 +19 1014.7 1011.7 0.0
22 11.06 В 2 13 км слаб. ливневой дождь н/о +17.7 +16.3 92 +18 +18 1014.7 1011.7
23 11.06 ЮВ 4 35 км в посл. час морось {ливн. осадки} н/о +17.9 +16.2 90 +18 +18 1014.2 1011.2
00 12.06 В 3
{9}
21 км н/о +17.5 +16.1 91 +17 +17 1014.8 1011.8
01 12.06 В 4 27 км н/о +17.2 +15.6 90 +17 +17 1015.3 1012.3
02 12.06 В 3 26 км н/о +16.9 +15.2 90 +17 +17 1015.1 1012.1
03 12.06 СВ 4 21 км н/о +16.3 +14.9 91 +16 +16 1014.6 1011.6
04 12.06 В 2 15 км слаб. ливневой дождь н/о +16.0 +15.0 94 +16 +16 1014.4 1011.4 0.1
05 12.06 СВ 5 9000 м слаб. ливневой дождь н/о +15.7 +14.9 95 +14 +14 1013.4 1010.4 0.1
06 12.06 СВ 7 15 км слаб. дождь н/о +15.0 +14.7 98 +13 +13 1011.2 1008.3 +15.0 +20.1 2
07 12.06 В 6 10 км слаб. дождь н/о +15.2 +14.9 98 +14 +14 1013.3 1010.3 0.2
08 12.06 В 3 12 км в посл. час дождь {ливн. осадки} н/о +16.2 +16.0 99 +16 +16 1013.0 1010.0 0.1
09 12.06 СВ 5 19 км н/о +17.0 +16.4 96 +16 +16 1012.8 1009.8 0.3
10 12.06 В 4 29 км н/о +18.7 +16.9 89 +20 +20 1012.7 1009.7
11 12.06 В 2 40 км н/о +19.9 +16.7 82 +23 +23 комфорт 1012.6 1009.6
12 12.06 СВ 4 27 км н/о +17.9 +16.0 89 +18 +18 1012.3 1009.3
13 12.06 СВ 5 12 км морось {дождь} н/о +16.9 +15.7 93 +16 +16 1012.1 1009.1
14 12.06 СВ 5 22 км {ливн. осадки} н/о +16.5 +15.4 93 +16 +16 1011.3 1008.4
15 12.06 СВ 4 6000 м дымка н/о +16.6 +16.0 96 +16 +16 1010.8 1007.9
16 12.06 СВ 4 12 км дымка н/о +16.8 +16.5 98 +16 +16 1009.7 1006.8 0.1
17 12.06 СВ 5 26 км н/о +17.5 +16.6 94 +17 +17 1009.1 1006.2
18 12.06 В 6 30 км н/о +17.7 +16.0 90 +17 +17 1008.7 1005.8 +15.0 +20.1 0.1
19 12.06 В 7 25 км н/о +17.6 +15.8 89 +17 +17 1008.4 1005.5
20 12.06 В 7 14 км слаб. ливневой дождь н/о +17.0 +15.9 93 +16 +16 1007.3 1004.4
21 12.06 В 5 10 км слаб. ливневой дождь н/о +16.9 +16.2 96 +16 +16 1008.2 1005.3
22 12.06 Ю 3 2800 м слаб. дождь н/о +16.6 +16.3 98 +16 +16 1008.7 1005.8 0.5
23 12.06 Ю 3 4900 м в посл. час дождь н/о +15.5 +15.3 99 +15 +15 1008.4 1005.5 0.2
00 13.06 Ю 2 2700 м дымка н/о +15.4 +15.4 100 +15 +15 1008.2 1005.3 0.7
01 13.06 ЮЗ 3 5000 м дымка н/о +15.7 +15.7 100 +15 +15 1008.1 1005.2
02 13.06 ЮЗ 2 5000 м дымка н/о +15.6 +15.6 100 +15 +15 1008.1 1005.2
03 13.06 ЮЗ 2 8000 м дымка н/о +14.8 +14.3 97 +14 +14 1009.2 1006.3
04 13.06 ЮЗ 2 9000 м дымка н/о +14.4 +13.5 94 +14 +14 1010.0 1007.1
05 13.06 ЮЗ 2 11 км н/о +14.6 +13.6 94 +14 +14 1011.0 1008.1
06 13.06 Ю 3 16 км н/о +15.2 +13.0 87 +15 +15 1011.2 1008.3 +14.2 +17.8
07 13.06 ЮЗ 3 30 км н/о +15.2 +12.3 83 +14 +14 1011.6 1008.7
08 13.06 Ю 3 26 км н/о +16.4 +12.3 77 +16 +16 1011.8 1008.9
09 13.06 ЮЗ 4 28 км н/о +18.1 +13.3 74 +18 +18 1012.4 1009.5
10 13.06 Ю 3 19 км н/о +18.7 +13.5 72 +20 +20 1012.6 1009.7
11 13.06 Ю 3 24 км н/о +19.0 +12.6 66 +20 +20 1013.0 1010.1
12 13.06 ЮВ 5 28 км н/о +19.7 +13.8 69 +21 +21 комфорт 1013.0 1010.1
13 13.06 ЮВ 6 30 км н/о +20.4 +14.1 67 +23 +23 комфорт 1013.0 1010.1
14 13.06 ЮВ 5 29 км н/о +21.4 +13.1 59 +24 +24 комфорт 1013.0 1010.1
15 13.06 Ю 4
{10}
40 км н/о +21.1 +12.5 58 +23 +23 комфорт 1012.9 1010.0
16 13.06 Ю 3 40 км н/о +21.3 +11.9 55 +23 +23 комфорт 1013.4 1010.5
17 13.06 ЮЗ 3 40 км н/о +19.1 +11.7 62 +20 +20 1014.0 1011.1
18 13.06 ЮВ 1
{10}
45 км н/о +19.2 +11.6 61 +21 +21 комфорт 1014.3 1011.4 +15.1 +21.6
19 13.06 ЮВ 1 50 км н/о +18.5 +11.7 65 +20 +20 1014.5 1011.6
20 13.06 В 1 50 км н/о +17.8 +12.5 71 +19 +19 1014.7 1011.8
21 13.06 ЮВ 2 8000 м дождь н/о +16.1 +12.9 81 +16 +16 1015.7 1012.8 0.4
22 13.06 ЮВ 2 30 км {ливн. осадки} н/о +15.1 +13.4 90 +15 +15 1015.2 1012.3 0.1
23 13.06 ЮВ 3 35 км н/о +14.9 +13.5 91 +14 +14 1015.3 1012.4
00 14.06 ЮВ 4 50 км н/о +15.7 +13.2 85 +15 +15 1015.5 1012.6 0.0
01 14.06 ЮВ 5 40 км н/о +15.7 +13.6 87 +15 +15 1015.9 1013.0
02 14.06 ЮЗ 1 18 км слаб. дождь н/о +15.0 +12.2 83 +16 +16 1015.5 1012.6
03 14.06 ЮВ 2
{10}
21 км в посл. час дождь {ливн. осадки} н/о +13.5 +11.9 90 +13 +13 1015.8 1012.9 0.1
04 14.06 Ю 2 45 км н/о +14.9 +12.6 86 +15 +15 1016.3 1013.4
05 14.06 Ю 3 30 км н/о +16.3 +14.6 90 +16 +16 1016.5 1013.6
06 14.06 Ю 4
{10}
30 км н/о +17.1 +14.4 84 +17 +17 1016.8 1013.9 +13.5 +19.3
07 14.06 Ю 3 30 км н/о +18.3 +13.8 75 +19 +19 1017.3 1014.4
08 14.06 ЮЗ 2 35 км н/о +19.8 +12.5 63 +22 +22 комфорт 1017.9 1015.0
09 14.06 Ю 3 30 км н/о +19.8 +13.9 69 +22 +22 комфорт 1018.3 1015.4
10 14.06 Ю 3 40 км н/о +21.2 +13.0 59 +23 +23 комфорт 1018.5 1015.6
11 14.06 Ю 4 30 км н/о +22.1 +11.7 52 +24 +24 комфорт 1018.5 1015.6
12 14.06 ЮВ 3 35 км н/о +22.9 +13.3 55 +26 +26 жарко 1018.3 1015.4
13 14.06 ЮВ 4 30 км н/о +23.1 +14.1 57 +27 +27 душно 1018.6 1015.7
14 14.06 ЮВ 2 45 км н/о +22.7 +12.2 51 +25 +25 комфорт 1018.1 1015.2
15 14.06 В 1 30 км в посл. час морось {ливн. осадки} н/о +22.0 +12.0 53 +24 +24 комфорт 1017.7 1014.8 0.0
16 14.06 В 3 45 км н/о +21.0 +13.5 62 +24 +24 комфорт 1018.0 1015.1
17 14.06 ЮЗ 2 н/о н/о +18.3 +14.9 81
18 14.06 СВ 4 25 км в посл. час ливневой дождь {гроза} 9/1 750 м
[Cu med, cong Ac trans Ci fib]
+15.7 +14.7 94 +15 +15 1018.4 1015.4 +15.9 +23.5 10
19 14.06 В 3 30 км н/о +16.1 +15.1 94 +16 +16 1018.2 1015.2
20 14.06 ЮВ 2 35 км н/о +15.7 +14.5 93 +16 +16 1018.4 1015.4
21 14.06 ЮВ 3 30 км н/о +15.9 +14.8 93 +15 +15 1018.5 1015.5
22 14.06 ЮВ 4 50 км н/о +16.2 +13.2 82 +16 +16 1018.2 1015.2
23 14.06 ЮВ 3 45 км н/о +15.7 +13.0 84 +15 +15 1017.7 1014.7
00 15.06 штиль 0 24 км н/о +15.2 +12.5 84 +15 +15 1017.6 1014.6
01 15.06 0 1400 м дымка н/о +13.6 +12.0 90 1017.2 1014.2
02 15.06 штиль 0 17 км н/о +13.0 +12.0 94 +12 +12 1016.7 1013.7
03 15.06 С 1 25 км н/о +13.2 +12.3 94 +13 +13 1016.2 1013.2
04 15.06 СВ 2 19 км н/о +14.2 +13.3 94 +14 +14 1015.7 1012.7
05 15.06 СВ 2 22 км н/о +16.3 +15.2 93 +17 +17 1015.2 1012.3
06 15.06 СВ 3 30 км н/о +17.9 +15.0 83 +18 +18 1014.6 1011.7 +12.7 +18.0
07 15.06 В 3 40 км н/о +19.7 +14.8 73 +22 +22 комфорт 1014.7 1011.8
08 15.06 В 4 35 км н/о +19.2 +15.1 77 +21 +21 комфорт 1014.7 1011.8
09 15.06 В 1 30 км в посл. час дождь {ливн. осадки} н/о +18.5 +16.0 85 +21 +21 комфорт 1014.5 1011.6 0.0
10 15.06 В 2 25 км слаб. ливневой дождь н/о +19.0 +16.9 88 +21 +21 комфорт 1014.2 1011.3
11 15.06 В 4 30 км слаб. ливневой дождь н/о +19.2 +16.7 85 +21 +21 комфорт 1013.6 1010.7
12 15.06 В 7-13
{13}
25 км гроза, ливневой дождь 10/4 900 м
[Cb cap As op Ci fib]
+17.4 +14.0 80 +16 +18 1013.0 1010.1 0.8
13 15.06 ЮВ 6 22 км слаб. дождь н/о +16.9 +13.6 81 +16 +16 1013.7 1010.8 1
14 15.06 В 7 30 км в посл. час дождь н/о +19.0 +14.8 77 +20 +20 1013.5 1010.6 0.1
15 15.06 В 8
{13}
24 км н/о +19.0 +13.3 70 +19 +19 1012.7 1009.8 1
16 15.06 В 6 30 км н/о +18.7 +13.4 71 +19 +19 1013.1 1010.2
17 15.06 В 6 30 км слаб. дождь н/о +17.7 +13.5 76 +17 +17 1012.6 1009.7
18 15.06 В 4
{13}
35 км в посл. час дождь {ливн. осадки} н/о +16.8 +14.2 85 +16 +16 1012.7 1009.8 +16.7 +20.0 0.2
19 15.06 В 2 35 км слаб. ливневой дождь н/о +16.9 +14.3 85 +17 +17 1011.9 1009.0
20 15.06 В 4 45 км {ливн. осадки} н/о +16.6 +13.9 84 +16 +16 1012.3 1009.4
21 15.06 ЮВ 2 40 км н/о +16.5 +14.4 87 +17 +17 1012.6 1009.7
22 15.06 ЮВ 2 45 км н/о +16.5 +14.1 86 +17 +17 1012.8 1009.9
23 15.06 ЮВ 2 9000 м слаб. ливневой дождь н/о +16.1 +14.3 89 +16 +16 1012.8 1009.9
00 16.06 Ю 1 14 км {ливн. осадки} н/о +15.9 +15.0 94 +17 +17 1012.7 1009.8
01 16.06 ЮЗ 3 7000 м дымка н/о +16.0 +15.4 96 +15 +15 1012.9 1010.0
02 16.06 З 4 6000 м дымка н/о +15.8 +15.3 97 +15 +15 1013.1 1010.2
03 16.06 З 5 24 км н/о +15.0 +14.3 96 +14 +14 1013.7 1010.8
04 16.06 З 6 40 км н/о +14.7 +13.1 90 +13 +13 1014.4 1011.5
05 16.06 З 5 29 км н/о +14.7 +12.8 88 +13 +13 1014.8 1011.9
06 16.06 З 6 35 км н/о +15.2 +12.6 84 +14 +14 1015.6 1012.7 +14.5 +17.1
07 16.06 З 6 40 км н/о +17.1 +11.1 68 +16 +16 1016.2 1013.3
08 16.06 З 6 30 км н/о +18.5 +11.7 65 +18 +18 1016.6 1013.7
09 16.06 З 7 30 км н/о +19.4 +11.2 59 +20 +20 1017.0 1014.1
10 16.06 З 6 30 км н/о +20.6 +12.3 59 +23 +23 комфорт 1017.7 1014.7
11 16.06 З 5 30 км н/о +20.9 +11.5 55 +23 +23 комфорт 1018.2 1015.2
12 16.06 ЮЗ 5 30 км н/о +21.5 +12.1 55 +24 +24 комфорт 1018.4 1015.4
13 16.06 З 6 35 км н/о +21.1 +11.9 56 +23 +23 комфорт 1018.7 1015.7

 

Местоположение метеостанции Тирструп (Дания): широта 56.32 долгота 10.63 высота над уровнем моря 23 м.

В архиве по умолчанию представлена погода в Тирструпе за последнюю неделю. Архивные данные за месяц целиком и за предыдущие месяцы, начиная с января 2011 года, Вы можете получить, выбрав интересующий диапазон дат из раскрывающегося списка и нажав кнопку "Ввод!".


*Определитесь, кто Вы:
робот инопланетянин человек

Внимание! Время в таблицах - всемирное. Для получения местного времени необходимо прибавить поправку, которая равна 1 ч.

Смотрите также архив погоды в соседних городах и на ближайших метеорологических станциях:

Погода на Мысе Sletterhage (Дания) (26 км)
Погода в Орхусе (Дания) (41 км)
Погода в Хальде V (Дания) (43 км)
Погода в Гнибене (Дания) (52 км)
Погода на Мысе Roesnaes (Дания) (65 км)
Погода в Фоулуме (Дания) (68 км)
Погода в Энхолте (Дания) (70 км)
Погода в Хорсенсе (Дания) (72 км)
Погода в Алеструпе (Дания) (84 км)
Погода в Хольбеке (Дания) (89 км)

Пояснения к столбцам:

Ветер - указаны скорость ветра в м/с - средняя за 10 мин, порывы в срок и между сроками (в фигурных скобках) и направление, откуда дует ветер: С - северный, СВ - северо-восточный, В - восточный, ЮВ - юго-восточный, Ю - южный, ЮЗ - юго-западный, З - западный, СЗ - северо-западный.
Видимость - горизонтальная дальность видимости в метрах или километрах. При видимости от 1 до 10 км при отсутствии осадков обычно наблюдается дымка, при ухудшении видимости до 1 км и менее - туман. В сухую погоду видимость может ухудшаться дымом, пылью или мглою.
Явления - указаны атмосферные явления, наблюдавшиеся в срок или в последний час перед сроком; фигурными скобками обозначены явления, наблюдавшиеся между сроками (за 1-3 часа до срока); квадратными скобками обозначены град или гололедные отложения с указанием их диаметра в мм.
Облачность - указаны через наклонную черту общая и нижняя облачность в баллах и высота нижней границы облаков в метрах; квадратными скобками обозначены формы облаков: Ci - перистые, Cs - перисто-слоистые, Cc - перисто-кучевые, Ac - высококучевые, As - высокослоистые, Sc - слоисто-кучевые, Ns - слоисто-дождевые, Cu - кучевые, Cb - кучево-дождевые. Подробнее классификацию облаков см. в Атласе облаков (PDF).
T - Температура воздуха - температура, измеренная на высоте 2 м над землей.
Td - Температура точки росы - температура, при понижении до которой содержащийся в воздухе водяной пар достигнет насыщения.
f - Относительная влажность воздуха - влажноcть воздуха, измеренная на высоте 2 м над землей.
Te - Эффективная температура - температура, которую ощущает одетый по сезону человек в тени. Характеристика душности погоды. При расчете учитывается влияние влажности воздуха и скорости ветра на теплоощущения человека.
Tes - Эффективная температура на солнце - температура, которую ощущает человек, с поправкой на солнечный нагрев. Характеристика знойности погоды. Зависит от высоты солнца над горизонтом, облачности и скорости ветра. Ночью, в пасмурную погоду, а также при ветре 12 м/с и более поправка равна нулю.
P - Атмосферное давление - приведенное к уровню моря атмосферное давление.
Po - Атмосферное давление - измеренное на уровне метеостанции атмосферное давление.
Tmin - Минимальная температура - минимум температуры воздуха на высоте 2 м над землей.
Tmax - Максимальная температура - максимум температуры воздуха на высоте 2 м над землей.
R - Количество осадков - Количество выпавших осадков за период времени, мм. При наведении курсора мыши на число - период времени, за который выпало указанное количество осадков.
R24 - Количество осадков - Количество выпавших осадков за 24 часа, мм.
S - Снежный покров - Высота снежного покрова, см. При наведении курсора мыши на число - состояние снежного покрова и степень покрытия местности в баллах.